| time (UTC) | temp C | wind direction | speed KPH | gust KPH | rain 1hr cm | rain 24hr cm | rain mn cm | humidity % | barometer mb |
| 20260506093505 | 12 | 23 | 1.6 | 6.4 | 0.00 | 0.03 | 0.03 | 74 | 1018.2 |
| 20260506093024 | 12 | 5 | 1.6 | 4.8 | 0.00 | 0.03 | 0.03 | 73 | 1018.2 |
| 20260506092503 | 12 | 316 | 3.2 | 4.8 | 0.00 | 0.03 | 0.03 | 73 | 1018.1 |
| 20260506092003 | 12 | 301 | 3.2 | 6.4 | 0.00 | 0.03 | 0.03 | 73 | 1018.2 |
| 20260506091505 | 13 | 295 | 1.6 | 6.4 | 0.00 | 0.03 | 0.03 | 72 | 1018.1 |
| 20260506091003 | 13 | 293 | 0.0 | 4.8 | 0.00 | 0.03 | 0.03 | 71 | 1018.1 |
| 20260506090503 | 13 | 293 | 1.6 | 1.6 | 0.00 | 0.03 | 0.03 | 71 | 1018.1 |
| 20260506090026 | 13 | 293 | 1.6 | 4.8 | 0.00 | 0.03 | 0.03 | 71 | 1018.1 |
| 20260506085504 | 13 | 293 | 1.6 | 4.8 | 0.00 | 0.03 | 0.03 | 70 | 1018.2 |
| 20260506085005 | 14 | 293 | 1.6 | 4.8 | 0.00 | 0.03 | 0.03 | 70 | 1018.2 |
| 20260506084526 | 14 | 293 | 3.2 | 6.4 | 0.00 | 0.03 | 0.03 | 71 | 1018.2 |
| 20260506084003 | 14 | 287 | 3.2 | 9.7 | 0.00 | 0.03 | 0.03 | 71 | 1018.3 |
| 20260506083526 | 14 | 293 | 3.2 | 9.7 | 0.00 | 0.03 | 0.03 | 71 | 1018.3 |
| 20260506083003 | 14 | 303 | 3.2 | 6.4 | 0.00 | 0.03 | 0.03 | 70 | 1018.4 |
| 20260506082503 | 14 | 305 | 3.2 | 6.4 | 0.00 | 0.03 | 0.03 | 70 | 1018.5 |
| 20260506082003 | 15 | 307 | 3.2 | 6.4 | 0.00 | 0.03 | 0.03 | 69 | 1018.5 |
| 20260506081503 | 15 | 308 | 3.2 | 6.4 | 0.00 | 0.03 | 0.03 | 69 | 1018.6 |
| 20260506081024 | 15 | 306 | 3.2 | 9.7 | 0.00 | 0.03 | 0.03 | 68 | 1018.5 |
| 20260506080503 | 15 | 313 | 3.2 | 9.7 | 0.00 | 0.03 | 0.03 | 67 | 1018.7 |
| 20260506073503 | 16 | 340 | 3.2 | 8.0 | 0.00 | 0.03 | 0.03 | 66 | 1018.8 |
| 20260506073003 | 16 | 356 | 3.2 | 8.0 | 0.00 | 0.03 | 0.03 | 66 | 1018.9 |
| 20260506072503 | 16 | 7 | 3.2 | 4.8 | 0.00 | 0.03 | 0.03 | 65 | 1019.0 |
| 20260506072003 | 16 | 7 | 3.2 | 4.8 | 0.00 | 0.03 | 0.03 | 65 | 1019.0 |
| 20260506071503 | 16 | 7 | 3.2 | 4.8 | 0.00 | 0.03 | 0.03 | 65 | 1019.1 |
| 20260506071003 | 16 | 7 | 3.2 | 6.4 | 0.00 | 0.03 | 0.03 | 65 | 1019.1 |
| 20260506070503 | 16 | 5 | 3.2 | 8.0 | 0.00 | 0.03 | 0.03 | 64 | 1019.1 |
| 20260506062503 | 17 | 330 | 6.4 | 9.7 | 0.00 | 0.03 | 0.03 | 60 | 1018.9 |
| 20260506062024 | 17 | 336 | 6.4 | 11.3 | 0.00 | 0.03 | 0.03 | 59 | 1018.9 |
| 20260506061503 | 17 | 324 | 6.4 | 12.9 | 0.00 | 0.03 | 0.03 | 58 | 1018.9 |
| 20260506061003 | 18 | 311 | 8.0 | 12.9 | 0.00 | 0.03 | 0.03 | 58 | 1018.9 |
| 20260506060503 | 18 | 316 | 11.3 | 14.5 | 0.00 | 0.03 | 0.03 | 57 | 1019.0 |
| 20260506051003 | 17 | 314 | 14.5 | 27.4 | 0.00 | 0.03 | 0.03 | 57 | 1019.0 |
| 20260506050503 | 17 | 310 | 14.5 | 24.1 | 0.00 | 0.03 | 0.03 | 57 | 1018.9 |
| 20260506045003 | 18 | 306 | 19.3 | 25.7 | 0.00 | 0.03 | 0.03 | 56 | 1018.9 |
| 20260506044503 | 18 | 306 | 20.9 | 29.0 | 0.00 | 0.03 | 0.03 | 56 | 1018.8 |
| 20260506044003 | 18 | 308 | 20.9 | 33.8 | 0.00 | 0.03 | 0.03 | 55 | 1018.7 |
| 20260506043503 | 18 | 309 | 20.9 | 33.8 | 0.00 | 0.03 | 0.03 | 54 | 1018.5 |
| 20260506043024 | 18 | 311 | 19.3 | 32.2 | 0.00 | 0.03 | 0.03 | 54 | 1018.3 |
| 20260506042503 | 18 | 310 | 17.7 | 32.2 | 0.00 | 0.03 | 0.03 | 54 | 1018.3 |
| 20260506042003 | 18 | 307 | 16.1 | 32.2 | 0.00 | 0.03 | 0.03 | 54 | 1018.3 |
| 20260506041503 | 18 | 305 | 16.1 | 27.4 | 0.00 | 0.03 | 0.03 | 54 | 1018.3 |
| 20260506041024 | 18 | 308 | 16.1 | 24.1 | 0.00 | 0.03 | 0.03 | 54 | 1018.4 |
| 20260506040503 | 18 | 315 | 16.1 | 29.0 | 0.00 | 0.03 | 0.03 | 54 | 1018.4 |
| 20260506040003 | 18 | 316 | 17.7 | 29.0 | 0.00 | 0.03 | 0.03 | 53 | 1018.5 |
| 20260506035503 | 18 | 316 | 17.7 | 32.2 | 0.00 | 0.03 | 0.03 | 53 | 1018.5 |
| 20260506035003 | 18 | 323 | 17.7 | 32.2 | 0.00 | 0.03 | 0.03 | 52 | 1018.4 |
| 20260506034503 | 18 | 323 | 19.3 | 30.6 | 0.00 | 0.03 | 0.03 | 52 | 1018.4 |
| 20260506034004 | 18 | 317 | 20.9 | 33.8 | 0.00 | 0.03 | 0.03 | 52 | 1018.3 |
| 20260506033503 | 19 | 313 | 20.9 | 35.4 | 0.00 | 0.03 | 0.03 | 52 | 1018.2 |
| 20260506033024 | 19 | 314 | 19.3 | 40.2 | 0.00 | 0.03 | 0.03 | 51 | 1018.1 |
| 20260506032524 | 19 | 313 | 19.3 | 40.2 | 0.00 | 0.03 | 0.03 | 50 | 1018.1 |
| 20260506032003 | 19 | 312 | 19.3 | 32.2 | 0.00 | 0.03 | 0.03 | 51 | 1018.0 |
| 20260506031503 | 18 | 318 | 19.3 | 29.0 | 0.00 | 0.03 | 0.03 | 50 | 1017.9 |
| 20260506031024 | 18 | 320 | 19.3 | 29.0 | 0.00 | 0.03 | 0.03 | 50 | 1018.0 |
| 20260506030503 | 18 | 313 | 20.9 | 35.4 | 0.00 | 0.03 | 0.03 | 50 | 1018.0 |
| 20260506030003 | 18 | 310 | 22.5 | 43.5 | 0.00 | 0.03 | 0.03 | 49 | 1018.2 |
| 20260506025503 | 19 | 316 | 24.1 | 43.5 | 0.00 | 0.03 | 0.03 | 47 | 1018.2 |
| 20260506025004 | 19 | 315 | 24.1 | 37.0 | 0.00 | 0.03 | 0.03 | 47 | 1017.9 |
| 20260506024503 | 20 | 311 | 24.1 | 48.3 | 0.00 | 0.03 | 0.03 | 45 | 1018.1 |
| 20260506024004 | 20 | 316 | 24.1 | 48.3 | 0.00 | 0.03 | 0.03 | 44 | 1017.9 |
| 20260506023503 | 20 | 317 | 24.1 | 40.2 | 0.00 | 0.03 | 0.03 | 45 | 1017.8 |
| 20260506023003 | 20 | 314 | 22.5 | 46.7 | 0.00 | 0.03 | 0.03 | 45 | 1017.7 |
| 20260506022503 | 19 | 315 | 19.3 | 46.7 | 0.00 | 0.03 | 0.03 | 44 | 1017.8 |
| 20260506022003 | 20 | 317 | 19.3 | 32.2 | 0.00 | 0.03 | 0.03 | 45 | 1018.1 |
| 20260506021503 | 20 | 316 | 19.3 | 38.6 | 0.00 | 0.03 | 0.03 | 45 | 1018.0 |
| 20260506021003 | 19 | 317 | 19.3 | 38.6 | 0.00 | 0.03 | 0.03 | 46 | 1018.1 |
| 20260506020503 | 19 | 314 | 20.9 | 33.8 | 0.00 | 0.03 | 0.03 | 47 | 1018.2 |
| 20260506020003 | 19 | 315 | 24.1 | 45.1 | 0.00 | 0.03 | 0.03 | 45 | 1018.2 |
| 20260506015504 | 19 | 319 | 27.4 | 45.1 | 0.00 | 0.03 | 0.03 | 44 | 1018.2 |
| 20260506015003 | 20 | 315 | 27.4 | 45.1 | 0.00 | 0.03 | 0.03 | 43 | 1018.0 |
| 20260506014503 | 20 | 310 | 29.0 | 46.7 | 0.00 | 0.03 | 0.03 | 44 | 1017.9 |
| 20260506014003 | 20 | 315 | 29.0 | 46.7 | 0.00 | 0.03 | 0.03 | 45 | 1017.6 |
| 20260506013503 | 20 | 320 | 29.0 | 49.9 | 0.00 | 0.03 | 0.03 | 45 | 1017.7 |
| 20260506013003 | 20 | 322 | 25.7 | 49.9 | 0.00 | 0.03 | 0.03 | 44 | 1017.5 |
| 20260506012503 | 20 | 321 | 25.7 | 49.9 | 0.00 | 0.03 | 0.03 | 45 | 1017.5 |
| 20260506012004 | 20 | 321 | 25.7 | 46.7 | 0.00 | 0.03 | 0.03 | 44 | 1017.3 |
| 20260506011503 | 20 | 322 | 29.0 | 46.7 | 0.00 | 0.03 | 0.03 | 45 | 1017.7 |
| 20260506011003 | 20 | 316 | 29.0 | 54.7 | 0.00 | 0.03 | 0.03 | 44 | 1017.6 |
| 20260506010503 | 20 | 309 | 29.0 | 54.7 | 0.00 | 0.03 | 0.03 | 44 | 1017.4 |
| 20260506010004 | 20 | 310 | 29.0 | 51.5 | 0.00 | 0.03 | 0.03 | 45 | 1017.3 |
| 20260506005503 | 20 | 309 | 27.4 | 51.5 | 0.00 | 0.03 | 0.03 | 45 | 1017.2 |
| 20260506005003 | 21 | 309 | 27.4 | 51.5 | 0.00 | 0.03 | 0.03 | 45 | 1017.3 |
| 20260506004504 | 21 | 311 | 27.4 | 46.7 | 0.00 | 0.03 | 0.03 | 44 | 1017.2 |
| 20260506004003 | 21 | 314 | 27.4 | 46.7 | 0.00 | 0.03 | 0.03 | 45 | 1017.5 |
| 20260506003525 | 21 | 324 | 27.4 | 51.5 | 0.00 | 0.03 | 0.03 | 45 | 1017.7 |
| 20260506003003 | 21 | 322 | 25.7 | 51.5 | 0.00 | 0.03 | 0.03 | 45 | 1017.9 |
| 20260506002503 | 21 | 314 | 25.7 | 46.7 | 0.00 | 0.03 | 0.03 | 44 | 1017.8 |
| 20260506002003 | 21 | 310 | 25.7 | 46.7 | 0.00 | 0.03 | 0.03 | 44 | 1017.8 |
| 20260506001503 | 20 | 308 | 27.4 | 43.5 | 0.00 | 0.03 | 0.03 | 44 | 1018.0 |
| 20260506001003 | 20 | 311 | 27.4 | 41.8 | 0.00 | 0.03 | 0.03 | 45 | 1018.2 |
| 20260506000523 | 20 | 310 | 29.0 | 59.5 | 0.00 | 0.03 | 0.03 | 45 | 1018.0 |
| 20260506000002 | 20 | 310 | 27.4 | 59.5 | 0.00 | 0.03 | 0.03 | 46 | 1018.1 |
| 20260505235502 | 20 | 311 | 27.4 | 49.9 | 0.00 | 0.03 | 0.03 | 44 | 1018.0 |
| 20260505235023 | 20 | 310 | 27.4 | 46.7 | 0.00 | 0.03 | 0.03 | 45 | 1017.9 |
| 20260505234523 | 20 | 307 | 25.7 | 45.1 | 0.00 | 0.03 | 0.03 | 44 | 1018.0 |
| 20260505234003 | 20 | 301 | 22.5 | 53.1 | 0.00 | 0.03 | 0.03 | 44 | 1018.0 |
| 20260505233502 | 20 | 310 | 20.9 | 53.1 | 0.00 | 0.03 | 0.03 | 46 | 1018.1 |
| 20260505233002 | 20 | 322 | 20.9 | 41.8 | 0.00 | 0.03 | 0.03 | 44 | 1017.9 |
| 20260505232503 | 21 | 319 | 22.5 | 38.6 | 0.00 | 0.03 | 0.03 | 45 | 1018.0 |
| 20260505232002 | 20 | 316 | 20.9 | 43.5 | 0.00 | 0.03 | 0.03 | 47 | 1017.9 |
| 20260505231502 | 20 | 318 | 19.3 | 43.5 | 0.00 | 0.03 | 0.03 | 45 | 1018.1 |
| 20260505231002 | 20 | 312 | 20.9 | 32.2 | 0.00 | 0.03 | 0.03 | 47 | 1018.0 |
| 20260505230502 | 20 | 311 | 20.9 | 46.7 | 0.00 | 0.03 | 0.03 | 47 | 1017.9 |
| 20260505230003 | 20 | 316 | 20.9 | 46.7 | 0.00 | 0.03 | 0.03 | 47 | 1018.0 |
| 20260505225502 | 20 | 314 | 19.3 | 45.1 | 0.00 | 0.03 | 0.03 | 48 | 1018.0 |
| 20260505225003 | 20 | 313 | 19.3 | 45.1 | 0.00 | 0.03 | 0.03 | 47 | 1018.1 |
| 20260505224502 | 20 | 311 | 19.3 | 40.2 | 0.00 | 0.03 | 0.03 | 49 | 1018.0 |
| 20260505224002 | 20 | 317 | 19.3 | 41.8 | 0.00 | 0.03 | 0.03 | 49 | 1018.0 |
| 20260505223502 | 19 | 321 | 19.3 | 41.8 | 0.00 | 0.03 | 0.03 | 48 | 1018.2 |
| 20260505223002 | 19 | 313 | 22.5 | 33.8 | 0.00 | 0.03 | 0.03 | 48 | 1018.1 |
| 20260505222523 | 19 | 311 | 24.1 | 59.5 | 0.00 | 0.03 | 0.03 | 48 | 1018.1 |
| 20260505222023 | 19 | 313 | 22.5 | 59.5 | 0.00 | 0.03 | 0.03 | 48 | 1018.1 |
| 20260505221503 | 18 | 318 | 20.9 | 41.8 | 0.00 | 0.03 | 0.03 | 49 | 1018.0 |
| 20260505221002 | 18 | 317 | 20.9 | 41.8 | 0.00 | 0.03 | 0.03 | 50 | 1018.0 |
| 20260505220502 | 18 | 305 | 22.5 | 48.3 | 0.00 | 0.03 | 0.03 | 50 | 1018.1 |
| 20260505220002 | 18 | 300 | 20.9 | 48.3 | 0.00 | 0.03 | 0.03 | 50 | 1018.1 |
| 20260505215502 | 18 | 298 | 20.9 | 37.0 | 0.00 | 0.03 | 0.03 | 51 | 1018.1 |
| 20260505215002 | 18 | 301 | 20.9 | 43.5 | 0.00 | 0.03 | 0.03 | 52 | 1018.5 |
| 20260505214502 | 18 | 305 | 22.5 | 43.5 | 0.00 | 0.03 | 0.03 | 51 | 1018.5 |
| 20260505214002 | 18 | 308 | 24.1 | 41.8 | 0.00 | 0.03 | 0.03 | 52 | 1018.6 |
| 20260505213502 | 18 | 308 | 25.7 | 41.8 | 0.00 | 0.03 | 0.03 | 52 | 1018.5 |
| 20260505213002 | 17 | 309 | 25.7 | 46.7 | 0.00 | 0.03 | 0.03 | 52 | 1018.5 |
| 20260505212502 | 17 | 310 | 25.7 | 46.7 | 0.00 | 0.03 | 0.03 | 53 | 1018.3 |
| 20260505212002 | 17 | 310 | 25.7 | 40.2 | 0.00 | 0.03 | 0.03 | 54 | 1018.2 |
| 20260505211523 | 17 | 307 | 22.5 | 41.8 | 0.00 | 0.03 | 0.03 | 54 | 1018.4 |
| 20260505211003 | 17 | 299 | 22.5 | 41.8 | 0.00 | 0.03 | 0.03 | 55 | 1018.5 |
| 20260505210523 | 16 | 298 | 24.1 | 35.4 | 0.00 | 0.03 | 0.03 | 56 | 1018.7 |
| 20260505210003 | 17 | 299 | 24.1 | 41.8 | 0.00 | 0.03 | 0.03 | 55 | 1018.4 |
| 20260505205502 | 17 | 295 | 20.9 | 41.8 | 0.00 | 0.03 | 0.03 | 54 | 1018.4 |
| 20260505205003 | 17 | 294 | 19.3 | 37.0 | 0.00 | 0.03 | 0.03 | 56 | 1018.2 |
| 20260505204502 | 16 | 293 | 20.9 | 32.2 | 0.00 | 0.03 | 0.03 | 56 | 1018.6 |
| 20260505204002 | 17 | 291 | 22.5 | 40.2 | 0.00 | 0.03 | 0.03 | 56 | 1018.5 |
| 20260505203524 | 17 | 293 | 22.5 | 40.2 | 0.00 | 0.03 | 0.03 | 55 | 1018.5 |
| 20260505203003 | 16 | 292 | 24.1 | 40.2 | 0.00 | 0.03 | 0.03 | 55 | 1018.5 |
| 20260505202502 | 16 | 289 | 25.7 | 41.8 | 0.00 | 0.03 | 0.03 | 55 | 1018.7 |
| 20260505202002 | 16 | 287 | 25.7 | 41.8 | 0.00 | 0.03 | 0.03 | 55 | 1018.7 |
| 20260505201503 | 16 | 287 | 24.1 | 40.2 | 0.00 | 0.03 | 0.03 | 56 | 1018.7 |
| 20260505201002 | 16 | 291 | 24.1 | 41.8 | 0.00 | 0.03 | 0.03 | 56 | 1018.7 |
| 20260505200502 | 16 | 296 | 24.1 | 41.8 | 0.00 | 0.03 | 0.03 | 56 | 1018.7 |
| 20260505200002 | 16 | 296 | 24.1 | 41.8 | 0.00 | 0.03 | 0.03 | 56 | 1018.5 |
| 20260505195502 | 16 | 292 | 24.1 | 41.8 | 0.00 | 0.03 | 0.03 | 55 | 1018.5 |
| 20260505195002 | 16 | 290 | 24.1 | 45.1 | 0.00 | 0.03 | 0.03 | 54 | 1018.5 |
| 20260505194502 | 16 | 291 | 24.1 | 45.1 | 0.00 | 0.03 | 0.03 | 54 | 1018.5 |
| 20260505194003 | 16 | 291 | 24.1 | 41.8 | 0.00 | 0.03 | 0.03 | 54 | 1018.3 |
| 20260505193503 | 16 | 295 | 24.1 | 41.8 | 0.00 | 0.03 | 0.03 | 53 | 1018.2 |
| 20260505193023 | 16 | 297 | 22.5 | 40.2 | 0.00 | 0.03 | 0.03 | 54 | 1018.2 |
| 20260505192503 | 16 | 299 | 22.5 | 41.8 | 0.00 | 0.03 | 0.03 | 53 | 1018.4 |
| 20260505192002 | 16 | 298 | 20.9 | 41.8 | 0.00 | 0.03 | 0.03 | 53 | 1018.2 |
| 20260505191502 | 16 | 296 | 19.3 | 40.2 | 0.00 | 0.03 | 0.03 | 53 | 1018.1 |
| 20260505191002 | 16 | 296 | 17.7 | 40.2 | 0.00 | 0.03 | 0.03 | 53 | 1018.1 |
| 20260505190502 | 16 | 295 | 14.5 | 32.2 | 0.00 | 0.03 | 0.03 | 53 | 1018.2 |
| 20260505190003 | 16 | 303 | 11.3 | 32.2 | 0.00 | 0.03 | 0.03 | 53 | 1018.2 |
| 20260505185502 | 15 | 297 | 8.0 | 20.9 | 0.00 | 0.03 | 0.03 | 53 | 1018.3 |
| 20260505185003 | 16 | 257 | 9.7 | 22.5 | 0.00 | 0.03 | 0.03 | 52 | 1018.7 |
| 20260505184502 | 16 | 260 | 11.3 | 32.2 | 0.00 | 0.03 | 0.03 | 52 | 1018.7 |
| 20260505184023 | 16 | 257 | 14.5 | 32.2 | 0.00 | 0.03 | 0.03 | 52 | 1018.4 |
| 20260505183503 | 16 | 277 | 19.3 | 35.4 | 0.00 | 0.03 | 0.03 | 52 | 1018.5 |
| 20260505183023 | 16 | 297 | 20.9 | 37.0 | 0.00 | 0.03 | 0.03 | 52 | 1018.5 |
| 20260505182503 | 16 | 302 | 22.5 | 43.5 | 0.00 | 0.03 | 0.03 | 51 | 1018.6 |
| 20260505182003 | 16 | 300 | 22.5 | 43.5 | 0.00 | 0.03 | 0.03 | 51 | 1018.4 |
| 20260505181502 | 16 | 300 | 22.5 | 40.2 | 0.00 | 0.03 | 0.03 | 51 | 1018.3 |
| 20260505181003 | 16 | 294 | 19.3 | 48.3 | 0.00 | 0.03 | 0.03 | 51 | 1018.2 |
| 20260505180502 | 16 | 292 | 19.3 | 48.3 | 0.00 | 0.03 | 0.03 | 51 | 1018.2 |
| 20260505180003 | 16 | 294 | 19.3 | 30.6 | 0.00 | 0.03 | 0.03 | 51 | 1018.1 |
| 20260505175523 | 16 | 297 | 20.9 | 40.2 | 0.00 | 0.03 | 0.03 | 50 | 1018.3 |
| 20260505175003 | 16 | 299 | 22.5 | 41.8 | 0.00 | 0.03 | 0.03 | 50 | 1018.3 |
| 20260505174503 | 16 | 298 | 20.9 | 41.8 | 0.00 | 0.03 | 0.03 | 50 | 1018.4 |
| 20260505174002 | 15 | 302 | 20.9 | 40.2 | 0.00 | 0.03 | 0.03 | 50 | 1018.5 |
| 20260505173502 | 15 | 306 | 22.5 | 40.2 | 0.00 | 0.03 | 0.03 | 50 | 1018.5 |
| 20260505173023 | 15 | 306 | 20.9 | 41.8 | 0.00 | 0.03 | 0.03 | 50 | 1018.7 |
| 20260505172503 | 15 | 308 | 19.3 | 41.8 | 0.00 | 0.03 | 0.03 | 50 | 1018.5 |
| 20260505172003 | 15 | 319 | 20.9 | 38.6 | 0.00 | 0.03 | 0.03 | 50 | 1018.7 |
| 20260505171503 | 15 | 325 | 24.1 | 41.8 | 0.00 | 0.03 | 0.03 | 50 | 1018.7 |
| 20260505171003 | 15 | 325 | 27.4 | 41.8 | 0.00 | 0.03 | 0.03 | 49 | 1018.7 |
| 20260505170502 | 15 | 319 | 29.0 | 45.1 | 0.00 | 0.03 | 0.03 | 49 | 1018.7 |
| 20260505170003 | 16 | 306 | 27.4 | 48.3 | 0.00 | 0.03 | 0.03 | 48 | 1018.7 |
| 20260505165502 | 16 | 298 | 29.0 | 48.3 | 0.00 | 0.03 | 0.03 | 48 | 1018.4 |
| 20260505165003 | 16 | 287 | 27.4 | 51.5 | 0.00 | 0.03 | 0.03 | 47 | 1018.7 |
| 20260505164503 | 15 | 283 | 25.7 | 51.5 | 0.00 | 0.03 | 0.03 | 48 | 1018.5 |
| 20260505164003 | 15 | 293 | 24.1 | 41.8 | 0.00 | 0.03 | 0.03 | 49 | 1018.5 |
| 20260505163523 | 15 | 302 | 25.7 | 43.5 | 0.00 | 0.03 | 0.03 | 48 | 1018.7 |
| 20260505163002 | 15 | 297 | 25.7 | 43.5 | 0.00 | 0.03 | 0.03 | 48 | 1018.4 |
| 20260505162003 | 15 | 288 | 27.4 | 48.3 | 0.00 | 0.05 | 0.03 | 48 | 1018.6 |
| 20260505160503 | 15 | 303 | 20.9 | 46.7 | 0.00 | 0.05 | 0.03 | 47 | 1018.5 |
| 20260505153024 | 15 | 318 | 17.7 | 27.4 | 0.00 | 0.05 | 0.03 | 45 | 1018.7 |
| 20260505152503 | 15 | 318 | 16.1 | 32.2 | 0.00 | 0.05 | 0.03 | 45 | 1018.8 |
| 20260505152003 | 14 | 311 | 16.1 | 32.2 | 0.00 | 0.05 | 0.03 | 44 | 1018.9 |
| 20260505151503 | 14 | 302 | 14.5 | 32.2 | 0.00 | 0.05 | 0.03 | 46 | 1019.0 |
| 20260505151003 | 14 | 308 | 14.5 | 27.4 | 0.00 | 0.05 | 0.03 | 45 | 1019.3 |
| 20260505150503 | 14 | 301 | 14.5 | 30.6 | 0.00 | 0.05 | 0.03 | 46 | 1019.2 |
| 20260505140503 | 15 | 297 | 17.7 | 33.8 | 0.00 | 0.05 | 0.03 | 41 | 1019.6 |
| 20260505125003 | 6 | 320 | 8.0 | 19.3 | 0.03 | 0.05 | 0.03 | 86 | 1020.2 |
| 20260505124503 | 6 | 323 | 8.0 | 19.3 | 0.03 | 0.05 | 0.03 | 87 | 1020.1 |
| 20260505124003 | 5 | 325 | 6.4 | 14.5 | 0.03 | 0.05 | 0.03 | 88 | 1020.3 |
| 20260505123503 | 5 | 327 | 6.4 | 12.9 | 0.03 | 0.05 | 0.03 | 88 | 1020.3 |
| 20260505123003 | 5 | 327 | 4.8 | 11.3 | 0.03 | 0.05 | 0.03 | 88 | 1020.3 |
| 20260505122503 | 4 | 324 | 4.8 | 11.3 | 0.03 | 0.05 | 0.03 | 89 | 1020.3 |
| 20260505122003 | 3 | 323 | 6.4 | 11.3 | 0.03 | 0.05 | 0.03 | 89 | 1020.4 |
| 20260505121502 | 3 | 324 | 6.4 | 11.3 | 0.00 | 0.03 | 0.00 | 89 | 1020.4 |
| 20260505121003 | 3 | 322 | 6.4 | 11.3 | 0.00 | 0.03 | 0.00 | 89 | 1020.3 |
| 20260505120524 | 2 | 323 | 6.4 | 11.3 | 0.00 | 0.03 | 0.00 | 89 | 1020.5 |
| 20260505120024 | 2 | 319 | 4.8 | 11.3 | 0.00 | 0.03 | 0.00 | 89 | 1020.6 |
| 20260505115503 | 1 | 318 | 4.8 | 11.3 | 0.00 | 0.03 | 0.03 | 89 | 1020.6 |
| 20260505115024 | 0 | 324 | 4.8 | 11.3 | 0.00 | 0.03 | 0.03 | 89 | 1020.6 |
| 20260505114503 | 0 | 329 | 3.2 | 8.0 | 0.00 | 0.03 | 0.03 | 88 | 1020.7 |
| 20260505114024 | 0 | 338 | 1.6 | 8.0 | 0.00 | 0.03 | 0.03 | 88 | 1020.7 |
| 20260505113524 | 0 | 343 | 0.0 | 6.4 | 0.00 | 0.03 | 0.03 | 88 | 1020.7 |
| 20260505113003 | 0 | 343 | 0.0 | 6.4 | 0.00 | 0.03 | 0.03 | 88 | 1020.8 |
| 20260505112503 | 0 | 343 | 1.6 | 3.2 | 0.00 | 0.03 | 0.03 | 88 | 1020.9 |
| 20260505112024 | 0 | 343 | 1.6 | 3.2 | 0.00 | 0.03 | 0.03 | 88 | 1021.1 |
| 20260505111503 | 0 | 340 | 1.6 | 6.4 | 0.00 | 0.03 | 0.03 | 88 | 1021.1 |
| 20260505111003 | 0 | 339 | 1.6 | 6.4 | 0.00 | 0.03 | 0.03 | 88 | 1021.3 |
| 20260505110503 | 0 | 337 | 1.6 | 4.8 | 0.00 | 0.03 | 0.03 | 88 | 1021.3 |
| 20260505102003 | 1 | 57 | 1.6 | 3.2 | 0.00 | 0.03 | 0.03 | 88 | 1021.8 |
| 20260505101503 | 1 | 57 | 1.6 | 3.2 | 0.00 | 0.03 | 0.03 | 88 | 1021.8 |
| 20260505101024 | 1 | 57 | 1.6 | 3.2 | 0.00 | 0.03 | 0.03 | 88 | 1021.8 |
| 20260505100503 | 1 | 57 | 1.6 | 4.8 | 0.00 | 0.03 | 0.03 | 88 | 1021.8 |
| 20260505100003 | 2 | 57 | 1.6 | 4.8 | 0.00 | 0.03 | 0.03 | 88 | 1021.9 |
| 20260505095503 | 2 | 57 | 1.6 | 4.8 | 0.00 | 0.03 | 0.03 | 88 | 1022.0 |
| 20260505095003 | 2 | 57 | 3.2 | 3.2 | 0.00 | 0.03 | 0.03 | 88 | 1022.0 |
| 20260505094503 | 2 | 57 | 3.2 | 3.2 | 0.00 | 0.03 | 0.03 | 88 | 1022.1 |
| 20260505094003 | 3 | 57 | 3.2 | 4.8 | 0.00 | 0.03 | 0.03 | 88 | 1022.1 |